Date String (YYYY-MM-DD hh:mm:ss) UTC,Instrument flags,Ambient pressure (hPa),Sample flow (lpm),Bypass flow (lpm),Sample temperature (°C),Ambient temperature (°C),ASC tube jacket temperature (°C),LED temperature (°C),Box temperature (°C),Sample RH (%),Span deviation,Mass concentration (μg/m³),Mass concentration (μg/m³),Mass concentration (μg/m³)
DateTimeUTC,F1_M11,P_M11,Q1_M11,Q2_M11,T1_M11,T2_M11,T3_M11,T4_M11,T5_M11,U1_M11,ZSPAN_M11,X2_M11,X0_M11,X1_M11
2023-03-05 13:00:00,,0815.2,4.99,0.00,21.6,20.4,00.0,30.4,23.1,14.2,-001.2,0011.00,0017.82,0009.56
2023-03-05 13:01:00,,0815.1,5.01,0.00,21.6,20.1,00.0,30.4,23.1,14.3,-000.7,0010.88,0017.70,0009.47
2023-03-05 13:02:00,,0815.1,5.00,0.00,21.5,19.8,00.0,30.4,23.0,14.3,-000.3,0010.72,0017.50,0009.40
2023-03-05 13:03:00,,0815.2,5.00,0.00,21.5,19.6,00.0,30.4,22.9,14.3,-000.2,0010.58,0017.50,0009.33
2023-03-05 13:04:00,,0815.1,5.00,0.00,21.4,19.5,00.0,30.3,22.9,14.4,-000.1,0010.50,0017.53,0009.31
2023-03-05 13:05:00,,0815.2,5.01,0.00,21.4,19.4,00.0,30.3,22.9,14.5,0000.0,0010.42,0017.53,0009.28
2023-03-05 13:06:00,,0815.2,5.02,0.00,21.4,20.4,00.0,30.3,23.1,14.4,0000.0,0010.39,0016.79,0009.25
2023-03-05 13:07:00,,0815.1,5.01,0.00,21.5,21.6,00.0,30.3,23.3,14.3,-000.1,0010.43,0016.84,0009.25
2023-03-05 13:08:00,,0815.1,5.01,0.00,21.7,22.3,00.0,30.3,23.6,14.1,-000.1,0010.51,0017.33,0009.30
2023-03-05 13:09:00,,0815.1,5.01,0.00,21.7,21.8,00.0,30.4,23.5,14.1,-000.1,0010.49,0017.32,0009.29
2023-03-05 13:10:00,,0814.9,4.98,0.00,21.7,21.3,00.0,30.4,23.4,14.1,0000.2,0010.48,0017.20,0009.28
2023-03-05 13:11:00,,0815.0,5.00,0.00,21.7,20.9,00.0,30.4,23.3,14.2,-000.1,0010.49,0017.99,0009.27
2023-03-05 13:12:00,,0815.0,5.00,0.00,21.6,20.5,00.0,30.4,23.2,14.1,-000.5,0010.48,0017.77,0009.28
2023-03-05 13:13:00,,0815.0,5.00,0.00,21.6,20.3,00.0,30.4,23.2,14.0,-000.8,0010.55,0018.02,0009.27
2023-03-05 13:14:00,,0815.0,4.99,0.00,21.6,20.2,00.0,30.4,23.2,14.1,-000.7,0010.57,0017.96,0009.23
2023-03-05 13:15:00,,0815.0,5.00,0.00,21.6,20.1,00.0,30.4,23.2,14.2,-000.9,0010.54,0017.77,0009.21
2023-03-05 13:16:00,,0815.0,5.00,0.00,21.6,20.0,00.0,30.4,23.2,14.2,-001.3,0010.53,0018.06,0009.18
2023-03-05 13:17:00,,0815.0,5.00,0.00,21.6,20.0,00.0,30.4,23.2,14.3,-001.3,0010.52,0018.56,0009.17
2023-03-05 13:18:00,,0815.0,4.98,0.00,21.6,20.1,00.0,30.4,23.2,14.3,-001.1,0010.46,0018.42,0009.15
2023-03-05 13:19:00,,0815.2,4.99,0.00,21.6,21.1,00.0,30.4,23.4,14.3,-001.0,0010.41,0018.04,0009.11
2023-03-05 13:20:00,,0815.2,4.97,0.00,21.8,22.3,00.0,30.4,23.7,14.2,-001.2,0010.37,0018.22,0009.10
2023-03-05 13:21:00,,0815.1,4.95,0.00,21.9,22.7,00.0,30.4,23.9,14.1,-001.5,0010.33,0018.39,0009.08
2023-03-05 13:22:00,,0815.1,5.01,0.00,21.9,22.3,00.0,30.5,23.8,14.0,-001.5,0010.38,0019.30,0009.11
2023-03-05 13:23:00,,0815.1,5.01,0.00,21.9,21.8,00.0,30.5,23.7,13.9,-001.4,0010.46,0020.40,0009.14
2023-03-05 13:24:00,,0815.1,4.99,0.00,21.9,21.3,00.0,30.5,23.7,13.9,-001.4,0010.46,0021.08,0009.18
2023-03-05 13:25:00,,0815.0,4.99,0.00,21.9,20.9,00.0,30.5,23.6,13.9,-001.3,0010.52,0021.02,0009.23
2023-03-05 13:26:00,,0815.0,5.00,0.00,21.9,20.7,00.0,30.6,23.6,13.9,-001.2,0010.61,0021.07,0009.30
2023-03-05 13:27:00,,0815.0,5.01,0.00,21.9,20.5,00.0,30.6,23.5,13.9,-001.1,0010.70,0020.88,0009.35
2023-03-05 13:28:00,,0815.1,5.01,0.00,21.9,20.4,00.0,30.6,23.5,13.9,-001.2,0010.83,0020.58,0009.43
2023-03-05 13:29:00,,0815.1,5.00,0.00,21.9,20.3,00.0,30.6,23.5,13.9,-001.3,0011.02,0021.69,0009.53
2023-03-05 13:30:00,,0815.1,5.01,0.00,21.8,20.2,00.0,30.6,23.5,14.0,-001.4,0011.12,0022.37,0009.59
2023-03-05 13:31:00,,0815.1,4.99,0.00,21.8,20.1,00.0,30.6,23.5,14.1,-001.4,0011.17,0022.25,0009.62
2023-03-05 13:32:00,,0815.0,5.00,0.00,21.8,20.3,00.0,30.5,23.5,14.1,-001.2,0011.21,0021.97,0009.63
2023-03-05 13:33:00,,0814.9,4.98,0.00,21.9,21.4,00.0,30.5,23.7,14.1,-001.0,0011.22,0021.12,0009.64
2023-03-05 13:34:00,,0815.2,4.96,0.00,22.0,22.5,00.0,30.6,23.9,14.0,-000.9,0011.17,0019.47,0009.63
2023-03-05 13:35:00,,0815.2,5.00,0.00,22.1,22.9,00.0,30.6,24.1,14.0,-000.9,0011.11,0018.63,0009.59
2023-03-05 13:36:00,,0815.1,4.98,0.00,22.1,22.3,00.0,30.7,24.0,14.0,-001.0,0011.03,0018.13,0009.57
2023-03-05 13:37:00,,0814.9,5.00,0.00,22.1,21.8,00.0,30.7,23.9,14.1,-000.9,0011.02,0018.25,0009.55
2023-03-05 13:38:00,,0815.0,5.00,0.00,22.1,21.4,00.0,30.7,23.9,14.1,-000.9,0011.00,0018.38,0009.55
2023-03-05 13:39:00,,0815.3,5.01,0.00,22.1,21.1,00.0,30.7,23.8,14.1,-000.8,0010.99,0018.63,0009.53
2023-03-05 13:40:00,,0814.9,5.02,0.00,22.1,20.7,00.0,30.7,23.7,14.3,-000.5,0010.84,0017.47,0009.48
2023-03-05 13:41:00,,0815.1,5.00,0.00,22.0,20.5,00.0,30.7,23.6,14.4,-000.1,0010.73,0016.53,0009.43
2023-03-05 13:42:00,,0815.0,5.01,0.00,22.0,20.3,00.0,30.7,23.5,14.4,-000.1,0010.71,0016.42,0009.43
2023-03-05 13:43:00,,0814.9,5.01,0.00,21.9,20.2,00.0,30.7,23.5,14.5,-000.0,0010.67,0016.23,0009.43
2023-03-05 13:44:00,,0814.9,4.99,0.00,21.9,20.0,00.0,30.7,23.4,14.6,-000.2,0010.55,0016.08,0009.37
2023-03-05 13:45:00,,0814.9,5.00,0.00,21.9,20.3,00.0,30.7,23.5,14.7,-000.1,0010.43,0016.09,0009.32
2023-03-05 13:46:00,,0814.9,5.00,0.00,22.0,21.6,00.0,30.7,23.8,14.7,-000.0,0010.36,0016.03,0009.30
2023-03-05 13:47:00,,0814.9,4.96,0.00,22.1,22.7,00.0,30.7,24.0,14.6,-000.2,0010.30,0016.00,0009.29
2023-03-05 13:48:00,,0814.9,4.99,0.00,22.2,22.6,00.0,30.7,24.1,14.5,-000.6,0010.19,0015.64,0009.25
2023-03-05 13:49:00,,0814.9,4.97,0.00,22.2,22.0,00.0,30.8,24.0,14.6,-000.4,0010.11,0016.05,0009.19
2023-03-05 13:50:00,,0814.9,5.01,0.00,22.1,21.4,00.0,30.8,23.8,14.6,-000.2,0009.97,0015.60,0009.15
2023-03-05 13:51:00,,0814.9,5.00,0.00,22.1,20.9,00.0,30.8,23.7,14.6,-000.4,0009.96,0015.61,0009.15
2023-03-05 13:52:00,,0814.8,5.00,0.00,22.1,20.6,00.0,30.8,23.6,14.6,-000.7,0009.94,0015.70,0009.16
2023-03-05 13:53:00,,0814.9,5.01,0.00,22.0,20.3,00.0,30.8,23.6,14.7,-000.5,0009.92,0015.81,0009.14
2023-03-05 13:54:00,,0815.0,4.98,0.00,22.0,20.1,00.0,30.8,23.5,14.7,-000.7,0009.93,0016.06,0009.14
2023-03-05 13:55:00,,0815.2,4.99,0.00,21.9,20.0,00.0,30.7,23.4,14.7,-000.8,0009.93,0015.91,0009.16
2023-03-05 13:56:00,,0815.3,4.99,0.00,21.9,19.9,00.0,30.7,23.4,14.7,-001.0,0009.97,0015.70,0009.17
2023-03-05 13:57:00,,0814.9,4.99,0.00,21.8,19.8,00.0,30.7,23.3,14.8,-001.3,0009.99,0015.67,0009.17
2023-03-05 13:58:00,,0814.8,5.01,0.00,21.8,20.4,00.0,30.7,23.4,14.8,-001.1,0010.02,0015.59,0009.18
2023-03-05 13:59:00,,0814.8,4.97,0.00,21.9,21.9,00.0,30.7,23.8,14.7,-000.7,0010.15,0015.75,0009.24
